DW9728 Weather Reports


time (UTC)temp
F
wind
direction
speed
knots
gust
knots
rain 1hr
in
rain 24hr
in
rain mn
in
humidity
%
barometer
mb
20260510164057 79 275 0.9 5.2 0.00 0.52 0.01 82 1014.2
20260510163157 78 265 0.9 4.3 0.00 0.52 0.01 84 1014.2
20260510162257 78 273 0.9 3.5 0.00 0.52 0.01 86 1014.3
20260510161357 77 277 0.9 3.5 0.00 0.52 0.01 88 1014.3
20260510160457 76 279 0.9 5.2 0.00 0.52 0.01 89 1014.3
20260510154657 75 270 0.9 2.6 0.00 0.52 0.01 91 1014.2
20260510152857 73 266 0.0 1.7 0.00 0.52 0.01 94 1014.1
20260510151957 72 272 0.0 3.5 0.00 0.52 0.01 95 1014.0
20260510150157 72 336 0.0 2.6 0.00 0.52 0.01 96 1013.7
20260510145257 72 264 0.0 1.7 0.00 0.52 0.01 96 1013.5
20260510142557 72 1 0.0 1.7 0.00 0.52 0.01 96 1013.4
20260510141657 71 278 0.0 1.7 0.00 0.52 0.01 97 1013.2
20260510140757 71 242 0.0 1.7 0.00 0.52 0.01 97 1013.0
20260510135857 70 211 0.0 0.9 0.00 0.52 0.01 97 1012.8
20260510134957 70 85 0.0 0.9 0.00 0.52 0.01 97 1012.8
20260510132257 69 120 0.0 0.9 0.00 0.52 0.01 97 1012.6
20260510131357 69 0 0.0 0.0 0.00 0.52 0.01 97 1012.4
20260510130457 68 0 0.0 0.0 0.00 0.52 0.01 97 1012.2
20260510125557 68 0 0.0 0.0 0.00 0.52 0.01 97 1012.0
20260510124657 68 0 0.0 0.0 0.00 0.52 0.01 97 1012.0
20260510123757 67 0 0.0 0.0 0.00 0.52 0.01 97 1011.8
20260510121957 66 0 0.0 0.0 0.00 0.52 0.01 97 1011.4
20260510121057 66 0 0.0 0.0 0.00 0.52 0.01 97 1011.3
20260510120158 66 0 0.0 0.0 0.00 0.52 0.01 97 1011.1
20260510115257 66 0 0.0 0.0 0.00 0.52 0.01 97 1011.1
20260510112557 65 0 0.0 0.0 0.00 0.52 0.01 97 1010.9
20260510111657 65 0 0.0 0.0 0.00 0.52 0.01 97 1010.9
20260510110757 65 269 0.0 0.9 0.00 0.52 0.01 97 1010.9
20260510105857 65 0 0.0 0.0 0.01 0.52 0.01 97 1010.9
20260510104957 66 0 0.0 0.0 0.01 0.52 0.01 97 1011.0
20260510104057 65 269 0.0 0.9 0.01 0.52 0.01 97 1010.9
20260510102257 65 0 0.0 0.0 0.01 0.52 0.01 97 1011.1
20260510101357 65 0 0.0 0.0 0.01 0.52 0.01 96 1011.2
20260510100457 66 0 0.0 0.0 0.01 0.52 0.01 97 1011.3
20260510095557 65 0 0.0 0.0 0.00 0.51 0.00 97 1011.3
20260510094657 65 0 0.0 0.0 0.00 0.51 0.00 96 1011.3
20260510093757 66 0 0.0 0.0 0.00 0.51 0.00 97 1011.3
20260510091957 65 0 0.0 0.0 0.00 0.51 0.00 96 1011.1
20260510091057 66 0 0.0 0.0 0.00 0.51 0.00 96 1011.0
20260510090157 66 0 0.0 0.0 0.00 0.51 0.00 96 1011.0
20260510085257 66 0 0.0 0.0 0.00 0.51 0.00 96 1011.0
20260510084357 66 0 0.0 0.0 0.00 0.51 0.00 96 1010.9
20260510082557 66 0 0.0 0.0 0.00 0.51 0.00 96 1011.0
20260510081657 66 0 0.0 0.0 0.00 0.51 0.00 96 1010.9
20260510080757 66 0 0.0 0.0 0.00 0.51 0.00 96 1010.9
20260510075857 66 0 0.0 0.0 0.00 0.51 0.00 96 1011.0
20260510074957 67 0 0.0 0.0 0.00 0.51 0.00 96 1011.1
20260510074057 67 0 0.0 0.0 0.00 0.51 0.00 96 1011.0
20260510073157 67 0 0.0 0.0 0.00 0.51 0.00 96 1011.0
20260510071357 67 0 0.0 0.0 0.00 0.51 0.00 96 1010.9
20260510065557 67 269 0.0 0.9 0.00 0.51 0.00 96 1010.9
20260510064657 67 0 0.0 0.0 0.00 0.51 0.00 96 1011.1
20260510063757 67 0 0.0 0.0 0.00 0.51 0.00 96 1011.0
20260510062857 68 0 0.0 0.0 0.00 0.51 0.00 96 1010.8
20260510061957 68 0 0.0 0.0 0.00 0.51 0.00 96 1010.8
20260510061057 68 0 0.0 0.0 0.00 0.51 0.00 96 1010.8
20260510060157 68 0 0.0 0.0 0.00 0.51 0.00 95 1010.8
20260510055257 68 0 0.0 0.0 0.00 0.51 0.00 96 1010.7
20260510054357 68 0 0.0 0.0 0.00 0.51 0.00 95 1010.7
20260510053457 68 0 0.0 0.0 0.00 0.51 0.00 95 1010.8
20260510052557 68 0 0.0 0.0 0.00 0.51 0.00 95 1010.8
20260510050757 69 0 0.0 0.0 0.00 0.51 0.00 95 1010.8
20260510045857 69 269 0.0 0.9 0.00 0.51 0.51 95 1010.7
20260510044057 69 269 0.0 0.9 0.00 0.51 0.51 95 1010.6
20260510043157 70 0 0.0 0.0 0.00 0.51 0.51 95 1010.6
20260510042257 70 0 0.0 0.0 0.00 0.51 0.51 95 1010.4
20260510041357 70 0 0.0 0.0 0.00 0.51 0.51 95 1010.3
20260510040457 70 0 0.0 0.0 0.00 0.51 0.51 95 1010.2
20260510035557 70 0 0.0 0.0 0.00 0.51 0.51 95 1010.1
20260510034657 70 0 0.0 0.0 0.00 0.51 0.51 95 1010.1
20260510033757 70 0 0.0 0.0 0.00 0.51 0.51 95 1010.1
20260510032857 71 0 0.0 0.0 0.00 0.51 0.51 95 1010.0
20260510031957 71 0 0.0 0.0 0.00 0.51 0.51 95 1009.9
20260510031057 71 0 0.0 0.0 0.00 0.51 0.51 95 1009.8
20260510030157 71 0 0.0 0.0 0.00 0.51 0.51 94 1009.7
20260510024357 72 0 0.0 0.0 0.00 0.51 0.51 94 1009.5
20260510022557 72 269 0.0 0.9 0.00 0.51 0.51 94 1009.4
20260510021657 73 269 0.0 0.9 0.00 0.51 0.51 94 1009.2
20260510020757 73 269 0.0 0.9 0.00 0.51 0.51 94 1009.1
20260510015857 74 269 0.0 0.9 0.00 0.51 0.51 93 1009.1
20260510014957 74 0 0.0 0.0 0.00 0.51 0.51 93 1008.9
20260510012257 76 0 0.0 0.0 0.00 0.51 0.51 92 1008.7
20260510011357 76 0 0.0 0.0 0.00 0.51 0.51 92 1008.6
20260510010457 77 0 0.0 0.0 0.00 0.51 0.51 91 1008.5
20260510005557 78 0 0.0 0.0 0.00 0.51 0.51 89 1008.4
20260510004657 79 0 0.0 0.0 0.00 0.51 0.51 88 1008.3
20260510003757 80 0 0.0 0.0 0.00 0.51 0.51 86 1008.3
20260510002857 82 0 0.0 0.0 0.00 0.51 0.51 83 1008.2
20260510001957 82 0 0.0 0.0 0.00 0.51 0.51 81 1008.1
20260510001057 82 0 0.0 0.0 0.00 0.51 0.51 83 1008.2
20260510000157 83 0 0.0 0.0 0.00 0.51 0.51 78 1008.1
20260509235257 82 0 0.0 0.0 0.00 0.51 0.51 83 1008.0
20260509234357 81 0 0.0 0.0 0.00 0.51 0.51 84 1007.9
20260509232557 78 269 0.0 0.9 0.00 0.51 0.51 91 1007.9
20260509231657 78 0 0.0 0.0 0.00 0.51 0.51 93 1007.9
20260509230757 76 269 0.0 0.9 0.01 0.51 0.51 93 1007.8
20260509225857 75 269 0.0 0.9 0.17 0.51 0.51 96 1007.8
20260509224957 74 270 0.0 0.9 0.49 0.51 0.51 94 1007.8
20260509224057 72 275 0.0 2.6 0.51 0.51 0.51 95 1007.8
20260509223157 71 191 0.9 2.6 0.51 0.51 0.51 93 1007.3
20260509222257 71 138 0.0 4.3 0.51 0.51 0.51 93 1007.4
20260509221357 70 120 1.7 4.3 0.51 0.51 0.51 92 1007.2
20260509220457 70 326 4.3 6.1 0.45 0.45 0.46 89 1007.8
20260509213757 88 170 0.9 5.2 0.00 0.00 0.00 57 1008.2
20260509212857 91 309 1.7 5.2 0.00 0.00 0.00 58 1007.7
20260509211957 91 284 1.7 5.2 0.00 0.00 0.00 58 1007.9
20260509210157 92 323 0.9 4.3 0.00 0.00 0.00 59 1008.0
20260509205257 91 295 0.9 3.5 0.00 0.00 0.00 62 1008.1
20260509204357 90 41 0.9 1.7 0.00 0.00 0.00 59 1008.3
20260509203457 91 30 0.0 2.6 0.00 0.00 0.00 59 1008.4
20260509202557 92 350 0.9 1.7 0.00 0.00 0.00 56 1008.6
20260509200757 91 66 0.9 1.7 0.00 0.00 0.00 60 1008.8
20260509195857 91 47 0.9 3.5 0.00 0.00 0.00 61 1008.9
20260509194957 90 122 0.9 3.5 0.00 0.00 0.00 62 1009.0
20260509194057 90 240 0.9 2.6 0.00 0.00 0.00 60 1009.0
20260509193157 90 5 0.9 3.5 0.00 0.00 0.00 63 1009.1
20260509192257 89 298 0.9 3.5 0.00 0.00 0.00 63 1009.3
20260509191357 89 223 0.9 2.6 0.00 0.00 0.00 67 1009.5
20260509190457 88 117 1.7 6.1 0.00 0.00 0.00 65 1009.7
20260509184657 88 329 0.0 3.5 0.00 0.00 0.00 66 1009.9
20260509182857 87 318 0.9 3.5 0.00 0.00 0.00 66 1010.0
20260509181957 87 333 0.9 4.3 0.00 0.00 0.00 67 1010.1
20260509181057 87 281 0.9 3.5 0.00 0.00 0.00 68 1010.2
20260509175257 87 353 0.9 3.5 0.00 0.00 0.00 68 1010.4
20260509174357 86 19 0.9 3.5 0.00 0.00 0.00 69 1010.5
20260509173457 86 62 0.9 3.5 0.00 0.00 0.00 71 1010.6
20260509172557 85 115 0.9 4.3 0.00 0.00 0.00 75 1010.9
20260509171657 85 64 0.9 4.3 0.00 0.00 0.00 74 1010.9
20260509170757 84 39 0.9 2.6 0.00 0.00 0.00 74 1010.9
20260509165857 84 263 0.9 3.5 0.00 0.00 0.00 77 1010.8
20260509164957 84 322 0.9 4.3 0.00 0.00 0.00 77 1010.9